Regional Weather Roundup
Issued by NWS

Home | Current Version | Previous Version | Text Only | Print | Product List | Glossary Off
Versions: 1 2 3 4 5 6 7 8 9 10 11 12 13 14 15 16 17 18 19 20 21 22 23 24 25 26 27 28 29 30 31 32 33 34 35 36 37 38 39 40 41 42 43 44 45 46 47 48 49 50

360
ASUS45 KTFX 111310
RWRMT
MONTANA REGIONAL WEATHER ROUNDUP
NATIONAL WEATHER SERVICE GREAT FALLS MT
600 AM MST MON DEC 11 2017

NOTE: "FAIR" INDICATES FEW OR NO CLOUDS BELOW 12000 FEET WITH NO
SIGNIFICANT WEATHER AND/OR OBSTRUCTIONS TO VISIBILITY.

MTZ001>007-043-111400-
WEST OF THE DIVIDE

CITY           SKY/WX    TMP DP  RH WIND       PRES   REMARKS
KALISPELL      CLOUDY    23  20  88 VRB3      30.63S
MISSOULA       CLOUDY    18  16  92 S3        30.63S FOG
BUTTE          FAIR       9   4  80 CALM      30.51F
MULLAN PASS    FAIR      41  32  70 W3        30.47F
ANACONDA         N/A     16  10  79 SW3       30.52F
DEER LODGE       N/A     10   7  85 CALM      30.55S
EUREKA           N/A    N/A N/A N/A MISG      30.68R
HAMILTON         N/A     12  10  92 CALM      30.60R VSB 1/4
LIBBY            N/A     21  19  93 CALM      30.64R
RONAN            N/A     24  21  88 SE2       30.58F
$$

MTZ008-052>055-111400-
SOUTHWEST MONTANA

CITY           SKY/WX    TMP DP  RH WIND       PRES   REMARKS
BOZEMAN        FAIR      14   8  77 S5        30.51F
DILLON         FAIR      21   9  59 S7        30.52R WCI  12
W YELLOWSTONE  MOCLDY    -6 -11  77 CALM      30.60R
ENNIS          CLOUDY    21  12  68 E3        30.55S
THREE FORKS      N/A      8   4  84 CALM      30.44F
$$

MTZ009-010-012-014-046-048-049-054-111400-
EAST SLOPES AND CENTRAL MONTANA

CITY           SKY/WX    TMP DP  RH WIND       PRES   REMARKS
CUT BANK       FAIR      21  12  68 N3        30.40S
GREAT FALLS    FAIR      29  15  56 SW14      30.41F WCI  18
MALMSTROM AFB  FAIR      27  16  63 W6        30.41S WCI  21
HELENA         FAIR      14  12  92 N3        30.52S
BOWMANS CRNR   FAIR      30  13  47 S13       30.40S WCI  20
CHOTEAU          N/A     27  14  59 SW5       30.42S
FAIRFIELD      FAIR      31  14  49 CALM      30.40S
POWER          FAIR      23  14  67 W10       30.39F WCI  13
RAYNESFORD     FAIR      25  17  70 CALM      30.42S
ULM            FAIR      27  17  65 S7        30.43R WCI  19
$$

MTZ011-013-016-021-045-047-050-051-111400-
NORTH CENTRAL MONTANA

CITY           SKY/WX    TMP DP  RH WIND       PRES   REMARKS
HAVRE          FAIR      23  17  78 SW8       30.41S WCI  14
LEWISTOWN      FAIR      27  17  66 CALM      30.40F
N BAR RANCH    FAIR      37  14  38 W8        30.39S WCI  31
CHINOOK          N/A     27  18  69 W7        30.40S WCI  19
DENTON         FAIR      24  15  68 MISG      30.37F
GEYSER         FAIR      33  15  49 SW14      30.39F WCI  23
GRASS RANGE    FAIR      35  18  49 W10       30.34S WCI  27
STANFORD       FAIR      32  16  51 SW3       30.40F
WINIFRED       FAIR      31  16  55 W10       30.38F WCI  22
$$

MTZ017>020-022>027-061-062-111400-
NORTHEAST MONTANA

CITY           SKY/WX    TMP DP  RH WIND       PRES   REMARKS
GLASGOW        FAIR      30  21  69 NW13      30.31S WCI  20
GLENDIVE       FAIR      34  25  69 NW20      30.25R WCI  23
JORDAN           N/A     34  19  54 NW12      30.32R WCI  25
SIDNEY         CLOUDY    37  30  75 NW16G23   30.24R WCI  28
WOLF POINT     FAIR      35  26  69 W12       30.29R WCI  27
MALTA          CLEAR     27  19  74 W10       30.36S WCI  17
PLENTYWOOD       N/A     36  30  80 NW28G36   30.18R WCI  23
POPLAR           N/A     36  28  75 W6        30.28R WCI  31
SCOBEY           N/A     36  24  62 W18       30.22R WCI  26
$$

MTZ028>42-056>058-111400-
SOUTHCENTRAL AND SOUTHEAST MONTANA

CITY           SKY/WX    TMP DP  RH WIND       PRES   REMARKS
BAKER          CLOUDY    36  28  73 NW23G41   30.25R WCI  24
BILLINGS       FAIR      37  16  42 W16       30.40S WCI  28
LIVINGSTON     FAIR      34  16  47 NW18      30.44F WCI  23
MILES CITY     FAIR      36  20  52 W12       30.34R WCI  28
BIG TIMBER     CLEAR     41   9  26 W24       30.43R
EKALAKA          N/A     34  19  54 NW18      30.20R WCI  23
FORSYTH          N/A     36  18  48 SW7       30.36S WCI  30
LAUREL           N/A     30  18  59 VRB6      30.43R WCI  24
ROUNDUP          N/A     29  10  44 SE5       30.26R
$$

REGIONAL REPORTS...DAKOTAS

CITY           SKY/WX    TMP DP  RH WIND       PRES   REMARKS
WILLISTON      CLOUDY    37  30  75 NW18G26   30.21R WCI  27
MINOT          CLOUDY    37  30  75 NW18      30.08R WCI  27
DICKINSON      CLOUDY    35  29  78 NW25G36   30.13R WCI  23
BEACH          CLOUDY    36  28  75 N23       30.24R WCI  24
CROSBY         CLOUDY    34  32  93 NW17      30.19R WCI  23
TIOGA          CLOUDY    34  34 100 NW26G38   30.15R WCI  21
BISMARCK       CLOUDY    42  32  67 NW26G33   30.04R
GRAND FORKS    CLOUDY    28  25  88 N31G48    29.90R BLWGSNOWWCI  12
FARGO          CLOUDY    36  32  85 N38G47    29.81R WCI  22
BUFFALO SD       N/A     38  25  59 NW38G52   30.11R WCI  24
RAPID CITY     FAIR      46  11  24 NW41G52   30.16R
$$

REGIONAL REPORTS...WYOMING/IDAHO/WASHINGTON

CITY           SKY/WX    TMP DP  RH WIND       PRES   REMARKS
GILLETTE       FAIR      32  16  51 W14       30.32R WCI  22
SHERIDAN       FAIR      34  16  47 W13       30.37F WCI  25
BUFFALO WY     FAIR      39  10  30 N21G28    30.35S WCI  29
CODY           FAIR      32   9  38 CALM      30.41S
YELLOWSTONE LA   N/A      3   0  87 NW3       30.59R
IDAHO FALLS    FAIR       9   7  92 N8        30.59S WCI  -3
SALMON         FLURRIES  16  13  88 CALM      30.74R
BOISE          CLOUDY    23  20  88 E3        30.67S
SPOKANE        CLOUDY    24  23  96 N5        30.59R
$$

REGIONAL REPORTS...ALBERTA

CITY           SKY/WX    TMP DP  RH WIND       PRES   REMARKS
EDMONTON       CLEAR     34  23  64 SW6       30.31F WCI  29
CALGARY        PTCLDY    23  14  68 NE3       30.37S
LETHBRIDGE     CLEAR     18  12  79 VRB2      30.38F
MEDICINE HAT   CLEAR     21  18  86 S6        30.40R WCI  14
$$

REGIONAL REPORTS...SASKATCHEWAN

CITY           SKY/WX    TMP DP  RH WIND       PRES   REMARKS
SWIFT CURRENT  PTCLDY    25  21  86 NW12      30.29R WCI  14
REGINA         FLURRIES  32  30  93 NW21G26   30.22R WCI  20
SASKATOON      CLOUDY    34  32  93 W7        30.28R WCI  28
$$




USA.gov is the U.S. government's official web portal to all federal, state and local government web resources and services.